Terug naar catalogus

NOAA 16 DEB

ActiefSSO
NORAD 41415·DEBRIS·🇺🇸 United States

Gelanceerd Sep 21, 2000 vanaf Vandenberg Space Force Base

Loading…

Volgende Passages (komende 24 uur)

TLE

VersSource: Space-Track

Epoch: Sep 12, 2026, 12:06 UTC

1 41415U 00055KU  26255.50438641  .00003089  00000-0  10800-2 0  9997
2 41415  98.7265 353.3781 0003510 277.1844  82.8943 14.35932929546417

Volg NOAA 16 DEB in realtime met AllMySat

Download on the App Store